Schneifelwetter: Wetterstation Hallschlag, 537 m . NN
Wetterdaten: Donnerstag, 24.11.2011
Datum Zeit Temp. A. Feuchte A. Luftdruck Regen Wind Richtung Richtung Sonnenschein Helligkeit T Regen Taupunkt Windchill
24.11.2011 00:09 7,0 C 97 % 1028 hPa 0,0 l/m 3,3 km/h (1 Bft) W-SW 250 0 min 0 lux 0 min 6,6 C 7,0 C
24.11.2011 00:24 6,9 C 97 % 1028 hPa 0,0 l/m 9,1 km/h (2 Bft) S-SW22.5 195 0 min 0 lux 0 min 6,5 C 4,8 C
24.11.2011 00:39 6,8 C 98 % 1028 hPa 0,0 l/m 13,0 km/h (3 Bft) SW22.5 235 0 min 0 lux 0 min 6,5 C 2,3 C
24.11.2011 00:54 6,8 C 98 % 1028 hPa 0,0 l/m 10,2 km/h (2 Bft) W-SW22.5 250 0 min 0 lux 0 min 6,5 C 3,9 C
24.11.2011 01:09 6,7 C 98 % 1028 hPa 0,0 l/m 7,4 km/h (2 Bft) W-SW 255 0 min 0 lux 0 min 6,4 C 5,9 C
24.11.2011 01:24 6,6 C 98 % 1028 hPa 0,0 l/m 11,0 km/h (2 Bft) W22.5 270 0 min 0 lux 0 min 6,3 C 3,2 C
24.11.2011 01:39 6,5 C 98 % 1028 hPa 0,0 l/m 8,5 km/h (2 Bft) W22.5 260 0 min 0 lux 0 min 6,2 C 4,8 C
24.11.2011 01:54 6,5 C 98 % 1028 hPa 0,0 l/m 0,0 km/h (0 Bft) W-SW 255 0 min 0 lux 0 min 6,2 C 6,5 C
24.11.2011 02:09 6,5 C 98 % 1028 hPa 0,0 l/m 0,0 km/h (0 Bft) W-SW 255 0 min 0 lux 0 min 6,2 C 6,5 C
24.11.2011 02:24 6,5 C 98 % 1028 hPa 0,0 l/m 0,0 km/h (0 Bft) W-SW 255 0 min 0 lux 0 min 6,2 C 6,5 C
24.11.2011 02:39 6,3 C 98 % 1028 hPa 0,0 l/m 0,0 km/h (0 Bft) W-SW 255 0 min 0 lux 0 min 6,0 C 6,3 C
24.11.2011 02:54 6,2 C 98 % 1028 hPa 0,0 l/m 0,9 km/h (0 Bft) W-SW 255 0 min 0 lux 0 min 5,9 C 6,2 C
24.11.2011 03:09 6,2 C 98 % 1028 hPa 0,0 l/m 0,0 km/h (0 Bft) W-SW 250 0 min 0 lux 0 min 5,9 C 6,2 C
24.11.2011 03:24 6,1 C 98 % 1028 hPa 0,0 l/m 0,0 km/h (0 Bft) W-SW 255 0 min 0 lux 0 min 5,8 C 6,1 C
24.11.2011 03:39 6,1 C 98 % 1028 hPa 0,0 l/m 0,0 km/h (0 Bft) W-SW 255 0 min 0 lux 0 min 5,8 C 6,1 C
24.11.2011 03:54 6,0 C 98 % 1028 hPa 0,0 l/m 0,0 km/h (0 Bft) W-SW 255 0 min 0 lux 0 min 5,7 C 6,0 C
24.11.2011 04:09 6,0 C 98 % 1028 hPa 0,0 l/m 0,0 km/h (0 Bft) W-SW 255 0 min 0 lux 0 min 5,7 C 6,0 C
24.11.2011 04:24 6,0 C 99 % 1029 hPa 0,0 l/m 0,0 km/h (0 Bft) W-SW 250 0 min 0 lux 0 min 5,9 C 6,0 C
24.11.2011 04:39 6,0 C 99 % 1029 hPa 0,0 l/m 0,0 km/h (0 Bft) W-SW 250 0 min 0 lux 0 min 5,9 C 6,0 C
24.11.2011 04:54 6,0 C 99 % 1029 hPa 0,0 l/m 0,0 km/h (0 Bft) W-SW 255 0 min 0 lux 0 min 5,9 C 6,0 C
24.11.2011 05:09 5,9 C 99 % 1029 hPa 0,0 l/m 0,0 km/h (0 Bft) W-SW 255 0 min 0 lux 0 min 5,8 C 5,9 C
24.11.2011 05:24 5,7 C 99 % 1029 hPa 0,0 l/m 0,0 km/h (0 Bft) W-SW 255 0 min 0 lux 0 min 5,6 C 5,7 C
24.11.2011 05:39 5,6 C 99 % 1029 hPa 0,0 l/m 4,0 km/h (1 Bft) W-SW 255 0 min 0 lux 0 min 5,5 C 5,6 C
24.11.2011 05:54 5,4 C 99 % 1029 hPa 0,0 l/m 0,0 km/h (0 Bft) W-SW 255 0 min 0 lux 0 min 5,3 C 5,4 C
24.11.2011 06:09 5,3 C 98 % 1029 hPa 0,0 l/m 0,0 km/h (0 Bft) W-SW 255 0 min 0 lux 0 min 5,0 C 5,3 C
24.11.2011 06:24 5,1 C 98 % 1029 hPa 0,0 l/m 0,0 km/h (0 Bft) W-SW 255 0 min 0 lux 0 min 4,8 C 5,1 C
24.11.2011 06:40 4,8 C 98 % 1029 hPa 0,3 l/m 0,0 km/h (0 Bft) W-SW 255 0 min 0 lux 16 min 4,5 C 4,8 C
24.11.2011 06:55 4,5 C 98 % 1029 hPa 0,0 l/m 0,0 km/h (0 Bft) W-SW 255 0 min 0 lux 0 min 4,2 C 4,5 C
24.11.2011 07:10 4,3 C 98 % 1029 hPa 0,0 l/m 0,0 km/h (0 Bft) W-SW 255 0 min 0 lux 0 min 4,0 C 4,3 C
24.11.2011 07:25 4,1 C 98 % 1029 hPa 0,0 l/m 0,0 km/h (0 Bft) W-SW 250 0 min 0 lux 0 min 3,8 C 4,1 C
24.11.2011 07:40 4,0 C 98 % 1029 hPa 0,0 l/m 0,0 km/h (0 Bft) W-SW 250 0 min 53 lux 0 min 3,7 C 4,0 C
24.11.2011 08:00 3,8 C 98 % 1029 hPa 0,0 l/m 0,5 km/h (0 Bft) W-SW 255 0 min 254 lux 0 min 3,5 C 3,8 C
24.11.2011 08:15 3,4 C 98 % 1029 hPa 0,0 l/m 0,0 km/h (0 Bft) W-SW 255 0 min 776 lux 0 min 3,1 C 3,4 C
24.11.2011 08:31 3,1 C 98 % 1029 hPa 0,0 l/m 0,0 km/h (0 Bft) W-SW 255 0 min 1,40 klux 0 min 2,8 C 3,1 C
24.11.2011 08:46 3,0 C 99 % 1029 hPa 0,0 l/m 0,0 km/h (0 Bft) W-SW 255 0 min 2,48 klux 0 min 2,9 C 3,0 C
24.11.2011 09:00 3,0 C 99 % 1029 hPa 0,0 l/m 0,0 km/h (0 Bft) W-SW 255 0 min 5,31 klux 0 min 2,9 C 3,0 C
24.11.2011 09:15 3,0 C 98 % 1029 hPa 0,0 l/m 0,0 km/h (0 Bft) W-SW 255 0 min 10,5 klux 0 min 2,7 C 3,0 C
24.11.2011 09:30 3,1 C 99 % 1029 hPa 0,0 l/m 0,0 km/h (0 Bft) W-SW 255 0 min 11,5 klux 0 min 3,0 C 3,1 C
24.11.2011 09:45 3,3 C 99 % 1029 hPa 0,0 l/m 0,0 km/h (0 Bft) W-SW 255 0 min 12,7 klux 0 min 3,2 C 3,3 C
24.11.2011 10:01 3,6 C 99 % 1029 hPa 0,0 l/m 0,0 km/h (0 Bft) W-SW 255 0 min 15,8 klux 0 min 3,5 C 3,6 C
24.11.2011 10:16 3,9 C 98 % 1029 hPa 0,0 l/m 0,0 km/h (0 Bft) W-SW 250 0 min 17,5 klux 0 min 3,6 C 3,9 C
24.11.2011 10:30 4,5 C 99 % 1030 hPa 0,0 l/m 0,0 km/h (0 Bft) W-SW 255 0 min 18,7 klux 0 min 4,4 C 4,5 C
24.11.2011 10:45 5,1 C 99 % 1030 hPa 0,0 l/m 0,0 km/h (0 Bft) W-SW 255 0 min 14,8 klux 0 min 5,0 C 5,1 C
24.11.2011 11:00 5,4 C 99 % 1029 hPa 0,0 l/m 0,0 km/h (0 Bft) W-SW 255 0 min 16,2 klux 0 min 5,3 C 5,4 C
24.11.2011 11:15 5,8 C 99 % 1029 hPa 0,0 l/m 0,0 km/h (0 Bft) W-SW 255 0 min 19,5 klux 0 min 5,7 C 5,8 C
24.11.2011 11:31 6,2 C 99 % 1029 hPa 0,0 l/m 0,0 km/h (0 Bft) W-SW 255 0 min 18,1 klux 0 min 6,1 C 6,2 C
24.11.2011 11:46 6,6 C 98 % 1029 hPa 0,0 l/m 0,0 km/h (0 Bft) W-SW 255 0 min 23,0 klux 0 min 6,3 C 6,6 C
24.11.2011 12:00 7,4 C 98 % 1029 hPa 0,0 l/m 0,0 km/h (0 Bft) W-SW 255 0 min 31,5 klux 0 min 7,1 C 7,4 C
24.11.2011 12:15 7,7 C 98 % 1029 hPa 0,0 l/m 0,0 km/h (0 Bft) W-SW 250 0 min 31,0 klux 0 min 7,4 C 7,7 C
24.11.2011 12:30 7,9 C 98 % 1029 hPa 0,0 l/m 0,0 km/h (0 Bft) W-SW 250 0 min 33,8 klux 0 min 7,6 C 7,9 C
24.11.2011 12:45 8,3 C 98 % 1029 hPa 0,0 l/m 0,0 km/h (0 Bft) W-SW 250 0 min 34,3 klux 0 min 8,0 C 8,3 C
24.11.2011 13:01 8,6 C 97 % 1029 hPa 0,0 l/m 0,0 km/h (0 Bft) W-SW 255 0 min 33,4 klux 0 min 8,2 C 8,6 C
24.11.2011 13:16 9,0 C 96 % 1029 hPa 0,0 l/m 7,6 km/h (2 Bft) W-SW 255 0 min 29,1 klux 0 min 8,4 C 8,1 C
24.11.2011 13:30 9,2 C 95 % 1028 hPa 0,0 l/m 9,9 km/h (2 Bft) W-SW 255 0 min 29,3 klux 0 min 8,4 C 6,8 C
24.11.2011 13:45 9,4 C 95 % 1028 hPa 0,0 l/m 10,3 km/h (2 Bft) W-SW 250 0 min 28,7 klux 0 min 8,6 C 6,8 C
24.11.2011 14:00 9,4 C 94 % 1028 hPa 0,0 l/m 10,3 km/h (2 Bft) W-SW 250 0 min 25,6 klux 0 min 8,5 C 6,8 C
24.11.2011 14:15 9,3 C 92 % 1028 hPa 0,0 l/m 10,6 km/h (2 Bft) W22.5 260 0 min 29,2 klux 0 min 8,1 C 6,5 C
24.11.2011 14:31 9,1 C 92 % 1028 hPa 0,0 l/m 11,4 km/h (2 Bft) W-SW 250 0 min 21,9 klux 0 min 7,9 C 5,8 C
24.11.2011 14:46 8,8 C 92 % 1028 hPa 0,0 l/m 8,1 km/h (2 Bft) W-SW 245 0 min 15,8 klux 0 min 7,6 C 7,5 C
24.11.2011 15:00 8,5 C 92 % 1028 hPa 0,0 l/m 7,2 km/h (2 Bft) W-SW22.5 250 0 min 12,5 klux 0 min 7,3 C 7,9 C
24.11.2011 15:15 8,3 C 92 % 1028 hPa 0,0 l/m 6,1 km/h (2 Bft) W-SW 245 0 min 10,4 klux 0 min 7,1 C 8,3 C
24.11.2011 15:30 8,0 C 92 % 1028 hPa 0,0 l/m 0,6 km/h (0 Bft) W-SW 240 0 min 8,14 klux 0 min 6,8 C 8,0 C
24.11.2011 15:45 7,6 C 92 % 1028 hPa 0,0 l/m 0,3 km/h (0 Bft) W-SW 245 0 min 6,57 klux 0 min 6,4 C 7,6 C
24.11.2011 16:01 7,2 C 92 % 1028 hPa 0,0 l/m 0,0 km/h (0 Bft) W-SW 240 0 min 5,25 klux 0 min 6,0 C 7,2 C
24.11.2011 16:16 6,6 C 91 % 1028 hPa 0,0 l/m 0,0 km/h (0 Bft) W-SW 240 0 min 3,18 klux 0 min 5,2 C 6,6 C
24.11.2011 16:30 6,0 C 91 % 1028 hPa 0,0 l/m 0,0 km/h (0 Bft) W-SW 240 0 min 1,69 klux 0 min 4,6 C 6,0 C
24.11.2011 16:45 5,2 C 92 % 1028 hPa 0,0 l/m 0,0 km/h (0 Bft) W-SW 240 0 min 626 lux 0 min 4,0 C 5,2 C
24.11.2011 17:00 4,5 C 93 % 1028 hPa 0,0 l/m 0,0 km/h (0 Bft) W-SW 240 0 min 194 lux 0 min 3,5 C 4,5 C
24.11.2011 17:15 3,9 C 93 % 1028 hPa 0,0 l/m 0,0 km/h (0 Bft) W-SW 245 0 min 22 lux 0 min 2,9 C 3,9 C
24.11.2011 17:31 3,3 C 93 % 1028 hPa 0,0 l/m 0,0 km/h (0 Bft) W-SW 240 0 min 3 lux 0 min 2,3 C 3,3 C
24.11.2011 17:46 2,8 C 93 % 1028 hPa 0,0 l/m 0,0 km/h (0 Bft) W-SW 240 0 min 0 lux 0 min 1,8 C 2,8 C
24.11.2011 18:00 2,3 C 94 % 1028 hPa 0,0 l/m 0,0 km/h (0 Bft) W-SW 240 0 min 0 lux 0 min 1,4 C 2,3 C
24.11.2011 18:15 1,9 C 94 % 1028 hPa 0,0 l/m 0,0 km/h (0 Bft) W-SW 240 0 min 0 lux 0 min 1,0 C 1,9 C
24.11.2011 18:30 1,7 C 95 % 1028 hPa 0,0 l/m 0,0 km/h (0 Bft) W-SW 240 0 min 0 lux 0 min 1,0 C 1,7 C
24.11.2011 18:45 1,5 C 95 % 1028 hPa 0,0 l/m 0,0 km/h (0 Bft) W-SW 240 0 min 0 lux 0 min 0,8 C 1,5 C
24.11.2011 19:01 1,2 C 95 % 1028 hPa 0,0 l/m 0,0 km/h (0 Bft) W-SW 240 0 min 0 lux 0 min 0,5 C 1,2 C
24.11.2011 19:16 1,0 C 95 % 1028 hPa 0,0 l/m 0,0 km/h (0 Bft) W-SW 240 0 min 0 lux 0 min 0,3 C 1,0 C
24.11.2011 19:30 0,7 C 95 % 1028 hPa 0,0 l/m 0,0 km/h (0 Bft) W-SW 240 0 min 0 lux 0 min -0,0 C 0,7 C
24.11.2011 19:45 0,5 C 95 % 1028 hPa 0,0 l/m 0,0 km/h (0 Bft) W-SW 240 0 min 0 lux 0 min -0,2 C 0,5 C
24.11.2011 20:00 0,3 C 95 % 1028 hPa 0,0 l/m 0,0 km/h (0 Bft) W-SW 240 0 min 0 lux 0 min -0,4 C 0,3 C
24.11.2011 20:15 0,4 C 96 % 1028 hPa 0,0 l/m 4,2 km/h (1 Bft) W-SW 240 0 min 0 lux 0 min -0,2 C 0,4 C
24.11.2011 20:31 0,1 C 96 % 1027 hPa 0,0 l/m 0,0 km/h (0 Bft) W-SW 240 0 min 0 lux 0 min -0,5 C 0,1 C
24.11.2011 20:46 -0,2 C 96 % 1027 hPa 0,0 l/m 1,1 km/h (1 Bft) W-SW 240 0 min 0 lux 0 min -0,8 C -0,2 C
24.11.2011 21:00 -0,4 C 96 % 1027 hPa 0,0 l/m 0,0 km/h (0 Bft) W-SW 240 0 min 0 lux 0 min -1,0 C -0,4 C
24.11.2011 21:15 0,1 C 97 % 1027 hPa 0,0 l/m 4,8 km/h (1 Bft) W-SW 240 0 min 0 lux 0 min -0,3 C 0,1 C
24.11.2011 21:30 -0,2 C 96 % 1027 hPa 0,0 l/m 0,0 km/h (0 Bft) W-SW 240 0 min 0 lux 0 min -0,8 C -0,2 C
24.11.2011 21:45 -0,6 C 96 % 1027 hPa 0,0 l/m 0,0 km/h (0 Bft) W-SW 240 0 min 0 lux 0 min -1,2 C -0,6 C
24.11.2011 22:01 -0,2 C 97 % 1027 hPa 0,0 l/m 0,3 km/h (0 Bft) W-SW 240 0 min 0 lux 0 min -0,6 C -0,2 C
24.11.2011 22:16 0,0 C 97 % 1026 hPa 0,0 l/m 0,1 km/h (0 Bft) W-SW 240 0 min 0 lux 0 min -0,4 C 0,0 C
24.11.2011 22:30 0,0 C 97 % 1026 hPa 0,0 l/m 0,6 km/h (0 Bft) W-SW 240 0 min 0 lux 0 min -0,4 C 0,0 C
24.11.2011 22:45 0,0 C 97 % 1026 hPa 0,0 l/m 0,2 km/h (0 Bft) W-SW 240 0 min 0 lux 0 min -0,4 C 0,0 C
24.11.2011 23:00 0,1 C 97 % 1026 hPa 0,0 l/m 0,0 km/h (0 Bft) W-SW 240 0 min 0 lux 0 min -0,3 C 0,1 C
24.11.2011 23:15 0,2 C 96 % 1026 hPa 0,0 l/m 0,0 km/h (0 Bft) W-SW 240 0 min 0 lux 0 min -0,4 C 0,2 C
24.11.2011 23:31 0,3 C 96 % 1026 hPa 0,0 l/m 0,0 km/h (0 Bft) W-SW 240 0 min 0 lux 0 min -0,3 C 0,3 C
24.11.2011 23:46 0,1 C 96 % 1026 hPa 0,0 l/m 0,0 km/h (0 Bft) W-SW 240 0 min 0 lux 0 min -0,5 C 0,1 C
24.11.2011 23:54 0,1 C 96 % 1026 hPa 0,0 l/m 2,8 km/h (1 Bft) W-SW 240 0 min 0 lux 0 min -0,5 C 0,1 C
_ Min-Zeit 21:45 16:16 22:16 - 01:54 - - - - - 21:45 21:45
Minimum _ -0,6 C 91 % 1026 hPa - 0,0 km/h (0 Bft) - - - - - -1,2 C -0,6 C
_ Max-Zeit 13:45 04:24 10:30 06:40 00:39 - - 00:09 12:45 06:40 13:45 13:01
Maximum _ 9,4 C 99 % 1030 hPa 0,3 l/m 13,0 km/h
SW (3 Bft)
- - 0 min 34,3 klux 16 min 8,6 C 8,6 C
Durchschnitt _ 4,5 C 97 % 1028 hPa #0,3 l/m 1,7 km/h (1 Bft) W-SW - #0 min. 6,07 klux #16 min. 4,0 C 4,2 C